Starlink 32518

operational
NORAD ID: 61967 Int'l Des: 2024-210 Owner: SPXS Country: US Constellation: starlink
LEOCIRCULAR

Über Starlink 32518

Beschreibung wird geladen...

Live-Position

3D-Globus wird geladen...

Nächste Überflüge

Höhenverlauf

Altitude vs Time

uPlot chart will show altitude changes over time

Zweizeiliger Elementsatz

1 61967U 24210J 25258.23324421 .00065625 00000-0 23689-2 0 9995
2 61967 43.0034 83.8143 0001981 265.3823 94.6803 15.27638333 48025
Epoch: 15. Sept. 2025 • Age: 14 hours

Aktueller Status

Höhe 494.5 km
Geschwindigkeit 7.62 km/s
Subsatellitenpunkt -42.85°S, 57.69°E
Startdatum 14. Nov. 2024
Alter 0.8 years
Typ internet

Technische Details

Klassifizierung Payload
Masse 730.00 kg
Trockenmasse 700.00 kg
Gesamtmasse 730.00 kg
Länge 0.30 m
Durchmesser 4.10 m
Spannweite 29.00 m
Form Box + pan
Hersteller SPXS
Bus-Typ Starlink V2M
Phasenstatus In Orbit
Besitzer/Staat SPXS/US

Große Konstellationen

Loading constellations...